Starlink 11267

operational
NORAD ID: 60994 Int'l Des: 2024-158 Owner: SPXS Country: US Constellation: starlink
LEOCIRCULAR

关于 Starlink 11267

正在加载描述...

实时位置

正在加载3D地球...

即将过境

高度历史

Altitude vs Time

uPlot chart will show altitude changes over time

两行轨道根数

1 60994U 24158E 26036.49257603 .00001460 00000-0 16907-4 0 9999
2 60994 53.1595 80.2895 0001386 73.4603 286.6567 15.69716011 82536
Epoch: Feb 5, 2026 • Age: 12 hours

当前状态

高度 359.4 km
速度 7.70 km/s
星下点 11.30°N, 51.41°W
发射日期 Sep 5, 2024
运行时间 1.4 years
类型 internet

技术详情

分类 Payload
质量 960.00 kg
干质量 910.00 kg
总质量 960.00 kg
长度 0.30 m
直径 4.10 m
跨度 29.00 m
形状 Box + pan
制造商 SPXS
平台类型 Starlink V2MD
阶段状态 In Orbit
所有者/国家 SPXS/US

大型星座

Loading constellations...